Location: El Álamo
(40.2307°N, 3.9945°W)
Time: 04:39:50
(UTC+00:00)

ARIANE 6 FM1 Upper Stage - Pass Details

Date: 19 May 2025
Orbit: 530 x 611 km, 62.0° (Epoch: 23 June)

Event Time Altitude Azimuth Distance (km) Brightness Sun altitude
Rises 20:14:49 0° 205° (SSW) 2,660 6.0 -8.3°
Reaches altitude 10° 20:17:02 10° 202° (SSW) 1,771 5.1 -8.7°
Maximum altitude 20:20:56 59° 123° (ESE) 617 2.5 -9.3°
Drops below altitude 10° 20:24:52 10° 43° (NE) 1,787 5.2 -9.9°
Sets 20:27:06 0° 40° (NE) 2,687 6.1 -10.2°
